Back to catalog

DELTA 1 DEB

AlivePO
NORAD 37665·DEBRIS·🇺🇸 United States

Launched Mar 5, 1978 from Vandenberg Space Force Base

Loading…

Next Passes (next 24 hours)

TLE

AgingSource: Space-Track

Epoch: Sep 4, 2026, 07:58 UTC

1 37665U 78026KC  26247.33205888  .00001387  00000-0  44742-3 0  9991
2 37665  99.1855  66.5409 0021909 197.6606 162.3821 14.40829251619704

Track DELTA 1 DEB in real time with AllMySat

Download on the App Store